Погода в Чепстоу

Великобритания     51°39′03″N   2°39′39″W
темп.,
°C
ветер,
м/с
пор.,
м/с
влажн.,
%
обл.,
%
осадки,
мм/ч
давл.,
гПа
погр.,
м
16 апреля, пт
пт1601:000ссв11875 0.0 103310
04:00−1ссв11905 0.0 103310
07:00−1с22925 0.0 103326
10:00+6св23705 0.0 1032633
13:00+9в33567 0.0 10311412
16:00+10в2258100 0.1 10301393
19:00+7вюв1277100 0.1 103082
22:00+4св017858 0.0 103110
17 апреля, сб
сб1701:00+2ссз11827 0.0 103110
04:000ссв118561 0.0 103110
07:00+1ссв118525 0.0 103110
10:00+7всв22655 0.0 1030552
13:00+10в22556 0.0 10291367
16:00+11вюв125426 0.0 10271500
19:00+9ю117188 0.0 102711
22:00+4юз1180100 0.0 102710
18 апреля, вс
вс1801:00+3ю1179100 0.0 102710
04:00+3ююв1183100 0.0 102610
07:00+4вюв0084100 0.0 102511
10:00+8ююв1170100 0.0 1025402
13:00+11ю226197 0.0 10241137
16:00+11ююз326384 0.0 1023997
19:00+10ююз117697 0.1 102340
22:00+6ююз117893 0.0 102312
19 апреля, пн
пн1901:00+6зюз0079100 0.0 102210
04:00+6ссв007798 0.0 102110
07:00+6в008193 0.0 102114
10:00+9вюв2273100 0.0 1020572
13:00+11ю2368100 0.2 10201095
16:00+11ю336682 0.3 10181110
19:00+10ююз238197 0.5 1018134
22:00+6юз1187100 0.0 101810
20 апреля, вт
вт2001:00+6ю0187100 0.0 101710
04:00+6ссв0189100 0.0 101610
07:00+6ссв1289100 0.0 101672
10:00+8с2385100 0.5 1016349
13:00+9сз338197 1.1 1016807
16:00+8с5686100 0.6 1015817
19:00+6сз398073 0.7 1015614
22:00+2сз338918 0.0 101628